Location: Unspecified
(49.2170°N, 0.0000°E)
Time: 10:12:19
(UTC+00:00)

Vanguard 2 Rocket - Pass Details

Date: 22 January 2021
Orbit: 554 x 3326 km, 32.9° (Epoch: 25 February)

Event Time Altitude Azimuth Distance (km) Brightness Sun altitude
Rises 17:39:51 0° 246° (WSW) 5,365 13.1 -9.6°
Reaches altitude 10° 17:44:54 10° 234° (SW) 3,814 11.4 -10.4°
Maximum altitude 17:51:25 22° 189° (S) 2,304 9.3 -11.4°
Drops below altitude 10° 17:56:00 10° 140° (SE) 2,561 9.0 -12.2°
Enters shadow 17:58:09 - 126° (SE) 3,095 9.3 -12.5°
